Location: Northcutt
(34.7304°N, 84.4305°W)
Time: 08:07:10
(UTC+00:00)

deb Explorer IX - Pass Details

Date: 12 October 2022
Orbit: 533 x 1057 km, 38.8° (Epoch: 02 December)

Event Time Altitude Azimuth Distance (km) Brightness Sun altitude
Exits shadow 10:50:46 14° 291° (WNW) 1,636 ? -11.1°
Maximum altitude 10:54:18 52° 6° (N) 775 ? -10.4°
Drops below altitude 10° 10:59:05 10° 83° (E) 2,130 ? -9.4°
Sets 11:01:43 0° 88° (E) 3,141 ? -8.9°
